DW3200 Weather Reports


Display with metric or nautical units.
time (UTC)temp
F
wind
direction
speed
MPH
gust
MPH
rain 1hr
in
rain 24hr
in
rain mn
in
humidity
%
barometer
mb
20260509083040 40 303 0.0 0.0 0.00 0.00 0.00 85 1017.8
20260509081505 40 303 0.0 0.0 0.00 0.00 0.00 84 1017.7
20260509080001 40 303 0.0 0.0 0.00 0.00 0.00 84 1017.5
20260509074543 41 303 0.0 0.0 0.00 0.00 0.00 83 1017.4
20260509073140 42 303 0.0 0.0 0.00 0.00 0.00 83 1017.3
20260509071523 42 303 0.0 0.0 0.00 0.00 0.00 83 1017.2
20260509070022 42 303 0.0 0.0 0.00 0.00 0.00 82 1017.0
20260509064600 42 303 0.0 0.0 0.00 0.00 0.00 81 1016.8
20260509063120 43 303 0.0 0.0 0.00 0.00 0.00 80 1016.7
20260509061535 44 303 0.0 0.0 0.00 0.00 0.00 79 1016.6
20260509060033 45 303 0.0 0.0 0.00 0.00 0.00 78 1016.6
20260509054512 45 303 0.0 0.0 0.00 0.00 0.00 76 1016.4
20260509053017 46 303 0.0 0.0 0.00 0.00 0.00 75 1016.2
20260509051551 47 303 0.0 0.0 0.00 0.00 0.00 74 1016.0
20260509050057 48 303 0.0 0.0 0.00 0.00 0.00 71 1016.0
20260509044526 49 303 0.0 0.0 0.00 0.00 0.00 68 1015.8
20260509043033 51 303 0.0 0.0 0.00 0.00 0.00 67 1015.8
20260509041600 51 303 0.0 0.0 0.00 0.00 0.00 65 1015.7
20260509040059 52 303 0.0 0.0 0.00 0.00 0.00 62 1015.5
20260509034537 53 303 0.0 0.0 0.00 0.00 0.00 60 1015.3
20260509033044 55 303 0.0 0.0 0.00 0.00 0.00 56 1015.1
20260509031516 56 303 0.0 0.0 0.00 0.00 0.00 55 1014.9
20260509030020 59 303 0.0 0.0 0.00 0.00 0.00 50 1014.6
20260509024604 61 303 0.0 0.0 0.00 0.00 0.00 44 1014.5
20260509023055 62 303 0.0 0.0 0.00 0.00 0.00 40 1014.2
20260509021543 63 303 0.0 0.0 0.00 0.00 0.00 39 1014.2
20260509020047 63 303 0.0 0.0 0.00 0.00 0.00 39 1014.1
20260509014542 63 303 1.0 0.0 0.00 0.00 0.00 38 1014.1
20260509013047 62 303 4.0 0.0 0.00 0.00 0.00 40 1014.1
20260509011545 62 305 4.0 0.0 0.00 0.00 0.00 40 1014.1
20260509010041 64 282 6.0 0.0 0.00 0.00 0.00 37 1014.1
20260509004552 62 296 4.0 0.0 0.00 0.00 0.00 39 1014.2
20260509003042 62 293 3.0 0.0 0.00 0.00 0.00 39 1014.2
20260509001522 63 294 4.0 0.0 0.00 0.00 0.00 40 1014.2
20260509000036 64 288 4.0 0.0 0.00 0.00 0.00 39 1014.2
20260508234504 65 289 6.0 0.0 0.00 0.00 0.00 40 1014.1
20260508233004 65 288 5.0 0.0 0.00 0.00 0.00 40 1014.1
20260508231604 64 306 6.0 0.0 0.00 0.00 0.00 41 1014.1
20260508230046 66 313 4.0 0.0 0.00 0.00 0.00 38 1014.0
20260508224605 64 294 3.0 0.0 0.00 0.00 0.00 38 1013.9
20260508223028 64 296 4.0 0.0 0.00 0.00 0.00 40 1014.1
20260508221533 65 292 6.0 0.0 0.00 0.00 0.00 40 1014.1
20260508220010 65 289 5.0 0.0 0.00 0.00 0.00 42 1014.2
20260508214511 64 290 7.0 0.0 0.00 0.00 0.00 44 1014.1
20260508213052 64 304 5.0 0.0 0.00 0.00 0.00 46 1014.1
20260508211554 64 290 5.0 0.0 0.00 0.00 0.00 48 1014.1
20260508210036 64 296 4.0 0.0 0.00 0.00 0.00 50 1014.2
20260508204535 64 299 4.0 0.0 0.00 0.00 0.00 51 1014.1
20260508203016 65 277 5.0 0.0 0.00 0.00 0.00 46 1014.1
20260508201516 64 281 5.0 0.0 0.00 0.00 0.00 50 1014.1
20260508200110 64 292 4.0 0.0 0.00 0.00 0.00 49 1013.9
20260508194600 66 199 2.0 0.0 0.00 0.00 0.00 38 1013.8
20260508193048 66 200 3.0 0.0 0.00 0.00 0.00 40 1013.9
20260508191538 65 225 1.0 0.0 0.00 0.00 0.00 37 1014.0
20260508190020 65 245 2.0 0.0 0.00 0.00 0.00 36 1014.1
20260508184525 65 222 2.0 0.0 0.00 0.00 0.00 36 1014.2
20260508183137 64 213 1.0 0.0 0.00 0.00 0.00 35 1014.2
20260508181612 64 223 2.0 0.0 0.00 0.00 0.00 35 1014.1
20260508180038 63 223 3.0 0.0 0.00 0.00 0.00 37 1014.1
20260508174538 63 240 4.0 0.0 0.00 0.00 0.00 40 1014.1
20260508173019 64 189 1.0 0.0 0.00 0.00 0.00 43 1014.0
20260508171529 63 198 2.0 0.0 0.00 0.00 0.00 47 1014.1
20260508170001 62 198 1.0 0.0 0.00 0.00 0.00 52 1014.0
20260508164558 61 200 1.0 0.0 0.00 0.00 0.00 54 1014.1
20260508163055 60 200 3.0 0.0 0.00 0.00 0.00 54 1014.1
20260508161552 59 288 1.0 0.0 0.00 0.00 0.00 64 1014.1
20260508160056 59 289 1.0 0.0 0.00 0.00 0.00 63 1014.2
20260508154551 59 289 0.0 0.0 0.00 0.00 0.00 64 1014.2
20260508153046 57 288 0.0 0.0 0.00 0.00 0.00 71 1014.2
20260508151546 55 288 0.0 0.0 0.00 0.00 0.00 79 1014.2
20260508150029 53 288 0.0 0.0 0.00 0.00 0.00 84 1014.2
20260508144536 51 288 0.0 0.0 0.00 0.00 0.00 88 1014.3
20260508143016 50 288 0.0 0.0 0.00 0.00 0.00 91 1014.2
20260508141509 48 288 0.0 0.0 0.00 0.00 0.00 92 1014.2
20260508140056 44 288 0.0 0.0 0.00 0.00 0.00 91 1014.3
20260508134546 42 288 0.0 0.0 0.00 0.00 0.00 91 1014.2
20260508133026 42 288 0.0 0.0 0.00 0.00 0.00 92 1014.0
20260508131527 40 288 0.0 0.0 0.00 0.00 0.00 92 1014.1
20260508130010 39 288 0.0 0.0 0.00 0.00 0.00 91 1013.9
20260508124509 39 288 0.0 0.0 0.00 0.00 0.00 91 1013.8
20260508123049 40 288 0.0 0.0 0.00 0.00 0.00 91 1013.8
20260508121549 40 288 0.0 0.0 0.00 0.00 0.00 90 1013.8
20260508120029 40 288 0.0 0.0 0.00 0.00 0.00 91 1013.7
20260508114533 40 288 0.0 0.0 0.00 0.00 0.00 90 1013.9
20260508113010 40 288 0.0 0.0 0.00 0.00 0.00 90 1013.7
20260508111508 40 288 0.0 0.0 0.00 0.00 0.00 90 1013.6
20260508110048 41 288 0.0 0.0 0.00 0.00 0.00 90 1013.6
20260508104555 41 288 0.0 0.0 0.00 0.00 0.00 89 1013.6
20260508103029 41 288 0.0 0.0 0.00 0.00 0.00 89 1013.6
20260508101535 42 288 0.0 0.0 0.00 0.00 0.00 89 1013.5
20260508100009 42 288 0.0 0.0 0.00 0.00 0.00 89 1013.4
20260508094507 42 288 0.0 0.0 0.00 0.00 0.00 89 1013.4
20260508093048 42 288 0.0 0.0 0.00 0.00 0.00 88 1013.5
20260508091547 43 288 0.0 0.0 0.00 0.00 0.00 88 1013.4
20260508090032 43 288 0.0 0.0 0.00 0.00 0.00 88 1013.3
20260508084523 44 288 0.0 0.0 0.00 0.00 0.00 87 1013.3